Regional Weather Roundup
Issued by NWS Charleston, SC

Current Version | Previous Version | Graphics & Text | Print | Product List | Glossary On
Versions: 1 2 3 4 5 6 7 8 9 10 11 12 13 14 15 16 17 18 19 20 21 22 23 24 25 26 27 28 29 30 31 32 33 34 35 36 37 38 39 40 41 42 43 44 45 46 47 48 49 50
000
ASUS42 KCHS 220912
RWRCHS

Regional Weather Roundup
National Weather Service Charleston SC
500 AM EDT SUN APR 22 2018

NOTE: "fair" indicates few or no clouds below 12,000 feet with no
significant weather and/or obstructions to visibility.

Not all stations are quality controlled. Use data with caution,
especially dewpoint observations.

SCZ027-030-031-034>040-042>050-221000-
...Southeast South Carolina...

CITY           SKY/WX    TMP DP  RH WIND       PRES   REMARKS
N Charleston   FAIR      58  55  90 E8        30.27S
Waterfront Prk NOT AVBL
Mount Pleasant FAIR      57  55  94 CALM      30.28S
Johns Island   CLOUDY    63  57  82 NE9       30.27S
Pinopolis        N/A     55  54  94 E6        30.20S
Moncks Corner  FAIR      52  50  93 NE5       30.29S
Summerville    CLOUDY    55  52  88 CALM      30.29S
Beaufort MCAS  MOCLDY    63  58  83 NE7       30.25S
Beaufort Arpt  FAIR      63  57  82 E8        30.25S
Hilton Head Is FAIR      64  59  82 VRB7G13   30.25S
Walterboro     PTSUNNY   55  54  94 E8        30.27F
Allendale      FAIR      57  54  88 CALM      30.26F

...Southern Midlands and Pee Dee...

CITY           SKY/WX    TMP DP  RH WIND       PRES   REMARKS
Georgetown     FAIR      48  46  93 CALM      30.31S
Kingstree      FAIR      48  46  93 CALM      30.31S
Orangeburg     CLOUDY    57  51  80 E3        30.29S
Barnwell       CLOUDY    59  52  77 CALM      30.28S
Aiken          CLOUDY    55  50  82 E6        30.31F
Manning        FAIR      46  45  93 E3        30.31S
Columbia       CLOUDY    57  51  80 E5        30.30R
Sumter         FAIR      49  46  87 N3        30.29S
Florence       FAIR      48  45  89 NE5       30.32F
Myrtle Beach   MOCLDY    55  50  83 NE5       30.32F
N Myrtle Beach MOCLDY    52  49  89 NE5       30.31S

$$

GAZ063-065-086>088-099>101-113>116-118-119-134>141-150-221000-
...Southeast Georgia...

CITY           SKY/WX    TMP DP  RH WIND       PRES   REMARKS
Savannah Arpt  CLOUDY    63  57  81 E7        30.23F
Hunter AAF     FAIR      63  58  83 NE3       30.20F
Fort Stewart   FAIR      57  55  93 CALM      30.21S
Statesboro     FAIR      57  56  98 CALM      30.25F
Sylvania       PTSUNNY   57  55  94 E3        30.27S
Claxton        FAIR      57  55  95 CALM      30.25R

...CSRA, Central and far Southeast Georgia...

CITY           SKY/WX    TMP DP  RH WIND       PRES   REMARKS
Thomson        CLOUDY    59  52  77 S5        30.31F
Augusta-Bush   CLOUDY    59  53  80 NE5       30.27S
Augusta-Daniel MOCLDY    60  52  74 E7        30.28S
Swainsboro     FAIR      57  54  88 E5        30.25S
Vidalia        MOCLDY    59  55  88 E6        30.23F
Eastman        CLOUDY    61  49  65 E8        30.23F
Hazlehurst     FAIR      60  55  83 E8        30.20F
Alma           CLOUDY    61  57  87 E5        30.19F
Waycross       MOCLDY    62  59  91 E6        30.19S
Jesup          NOT AVBL
Baxley         MOCLDY    55  55 100 E7        30.20F
Brunswick      CLOUDY    64  57  77 E3        30.21S
Saint Simons   MOCLDY    66  61  84 SE6       30.20S

$$

SCZ027-028-034-036>038-045-046-048>050-GAZ119-141-221000-
...Lake and Supplemental Coastal Observations...

STATION/POSITION TIME  TEMP    WIND        PRES    WAVE   SWELL
                       AIR SEA DIR/SP/G            HT/PER HT/PER/DIR
                 (UTC) (F)     (DEG/KT/KT) (MB)    (FT/S) (FT/S/D)
Winyah Bay       0745   62      60/  7     1026.0
Lake Murray      0820   56      80/  5/  9 1025.4
ACE Basin NERRS  0745   62     350/  3       N/A
Fort Pulaski     0836   65 65   80/ 10/ 12 1024.2R
Sapelo Island    0800   64      80/  4     1023.0

$$

ANZ835-935-AMZ111-154-330-350-352-354-370-450-454-472-221000-
...C-MAN and Buoy Observations...

STATION/POSITION TIME  TEMP    WIND        PRES    WAVE   SWELL
                       AIR SEA DIR/SP/G            HT/PER HT/PER/DIR
                 (UTC) (F)     (DEG/KT/KT) (MB)    (FT/S) (FT/S/D)
Buoy 41004       0850   67 67  110/ 14/ 16 1024.5R   5/ 6   2/ 80/13
Buoy 41008       0850   67 65   90/ 10/ 12 1022.6S   4/ 8   3/100/ 8
Folly Beach CMAN 0800   63      60/ 12/ 14 1025.4F
Capers Nearshore 0808   63 63   70/ 12/ 17 1025.2F
Fripp Nearshore  0808   64 63   70/ 10/ 16 1023.6F


STATION/POSITION TIME  TEMP    WIND        PRES    WAVE   SWELL
                       AIR SEA DIR/SP/G            HT/PER HT/PER/DIR
                 (UTC) (F)     (DEG/KT/KT) (MB)    (FT/S) (FT/S/D)
5E St. Marys GA  0900      66                N/A     5/ 7
Frying Pan Buoy  0850   67 69  110/ 14/ 16 1025.8F   3/ 5   3/ 70/ 5
Buoy 41025       0850   58 73   10/ 10/ 14 1028.5F   3/ 7   3/ 50/ 7
Cape Lookout NC  0800           80/ 10/ 11 1028.2F
Buoy 41002       0850   65 72   70/ 12/ 16 1025.4F   4/ 9   3/100/ 9
Buoy 41010       0850   71 76   70/ 19/ 25 1021.5R   6/ 7   2/ 90/14
St Augustine FL  0900   69 67  100/ 12/ 14 1021.8F


$$



USA.gov is the U.S. government's official web portal to all federal, state and local government web resources and services.